Время (UTC), дата Ветер
(°,м/с) 
Видим.   Явления Облачность Т
(°С)
Тd
(°С)
f(%) Тe
(°С)
Pmin
(гПа)
dP
(гПа)
Po
(мм)
O2
(г/м3)
Тmin Tmax R s Состояние
почвы
00 01.04.12 тихо ()   >10 км    ясно 
-6 -7.9 86 -6  1030.7  1.7  746  308  -6.2      мокрый или
старый снег
50-90% 
03 01.04.12 060 (СВ) >10 км    ясно 
+1.8 -6.4 55 +3  1030.6  747  300           
06 01.04.12 290 (З) >10 км    ясно 
+6.8 -10.1 29 +7  1028.8  -1.2  746  294           
09 01.04.12 240 (ЮЗ) >10 км    ясно 
+8.6 -9.4 27 +8  1027.4  -1.2  745  292           
12 01.04.12 260 (З) >10 км    8/0 верхняя 
[Ci fib]
+6.7 -9.2 31 +8  1026.9  -0.6  745  294    +9.6       
15 01.04.12 220 (ЮЗ) 4000 м    ясно 
-0.3 -9.1 51 -1  1027.7  -0.1  745  301           
18 01.04.12 200 (Ю) 4000 м    ясно 
-0.7 -8.8 54 -2  1027  -0.7  744  301           
21 01.04.12 270 (З) 4000 м    ясно 
-3.8 -7.9 73 -3  1026.1  -0.4  744  305           
00 02.04.12 тихо ()   >10 км    9/0 верхняя 
[Ci fib]
-4.3 -8.1 75 -4  1026.3  -0.8  743  305  -4.6      мокрый или
старый снег
50-90% 
03 02.04.12 тихо ()   4000 м  дымка  9/0 верхняя 
[Ci fib]
+1.7 -5.2 60 +2  1026  0.5  744  298           
06 02.04.12 070 (В) 4000 м  дым  9/0 верхняя 
[Ci fib]
+6.6 -8.3 34 +8  1023.3  -1.9  742  293           
09 02.04.12 250 (З) 4000 м  дым  9/0 верхняя 
[Ci fib]
+11.2 -4.4 33 +11  1021.4  -1.4  741  287           
12 02.04.12 240 (ЮЗ) 4000 м  дым  9/9 2000 м средняя 
[Ac trans]
+7.3 -5.7 39 +7  1020.9  -0.9  740  291    +11.4       
15 02.04.12 230 (ЮЗ) 4000 м    9/9 2000 м средняя 
[Ac trans]
+7.5 -8.6 31 +6  1020.9  740  291           
18 02.04.12 240 (ЮЗ) 4000 м  слаб. ливневой дождь  10/10 600 м кучево-дожд. 
[Cb cap]
+6.8 -4 46 +6  1021.8  0.7  741  292           
21 02.04.12 240 (ЮЗ) 4000 м  {ливн. осадки}  10/10 600 м кучево-дожд. 
[Cb cap]
+6.6 -1.4 57 +6  1022.7  0.9  742  292           
00 03.04.12 270 (З) >10 км  {ливн. осадки}  10/10 600 м кучево-дожд. 
[Cb cap]
+5.5 +0 68 +5  1024.7  1.8  743  293  +5.5    0.0  мокрый или
старый снег
50-90% 
03 03.04.12 290 (З) >10 км    10/6 600 м кучево-дожд., средняя 
[Cb cap|Ac As]
+6 +0.6 68 +6  1025.6  744  293           
06 03.04.12 280 (З) >10 км  в посл. час ливневой дождь  10/10 600 м кучево-дожд. 
[Cb cap]
+4.6 -0.8 68 +3  1027.4  1.5  745  295           
09 03.04.12 290 (З) >10 км  {ливн. осадки}  10/10 600 м кучево-дожд. 
[Cb cap]
+4.2 -0.7 70 +5  1028.8  1.3  746  296           
12 03.04.12 270 (З) >10 км  {ливн. осадки}  10/8 1000 м кучево-дожд., средняя 
[Cb cap|Ac As]
+3.6 -1.1 71 +4  1030  1.1  747  297    +6.5  0.0     
15 03.04.12 240 (ЮЗ) 4000 м    10/10 600 м кучево-дожд. 
[Cb cap]
+3.3 -1.1 73 +3  1031.1  747  298           
18 03.04.12 230 (ЮЗ) 4000 м    ясно 
+2.3 -1.7 75 1031.4  0.2  748  299           
21 03.04.12 230 (ЮЗ) 4000 м    ясно 
+2.2 -1.5 77 -1  1030.8  -0.5  747  299           
00 04.04.12 230 (ЮЗ) >10 км    ясно 
+2 -2.3 73 -1  1031.6  0.7  748  299  +1.7      <0.5  мокрый или
старый снег
10-40% 
03 04.04.12 220 (ЮЗ) 5{12}  >10 км    10/0 верхняя 
[Cs]
+5.9 -2 57 +4  1031  -0.2  748  295           
06 04.04.12 250 (З) 4{12}  >10 км    8/0 верхняя 
[Ci fib]
+11 -1.2 43 +10  1029.4  -0.8  747  289           
09 04.04.12 260 (З) >10 км    9/0 верхняя 
[Ci fib]
+13 -1.4 37 +13  1027.6  -1.6  746  287           
12 04.04.12 230 (ЮЗ) >10 км    8/0 верхняя 
[Ci fib]
+11.2 -3.3 36 +11  1025.7  -2  744  288    +13.6       
15 04.04.12 240 (ЮЗ) 6{12}  4000 м    8/3 2000 м средняя, верхняя 
[Ac lent|Ci fib]
+9.3 -4.4 38 +8  1023.2  -2.6  742  290           
18 04.04.12 230 (ЮЗ) 8{17}  4000 м    10/0 верхняя 
[Cs]
+8 -4.1 42 +5  1020.4  -2.9  740  290           
21 04.04.12 230 (ЮЗ) 8{18}  4000 м    10/0 верхняя 
[Cs]
+7.8 -3.8 44 +5  1018.6  -1.9  739  290           
00 05.04.12 230 (ЮЗ) 7{16}  >10 км    9/5 1000 м верхняя 
[Sc|Ci fib]
+8 -3.3 45 +6  1018.4  -0.1  739  289  +7.5      <0.5  мокрый или
старый снег
10-40% 
03 05.04.12 250 (З) 4{15}  >10 км    9/0 верхняя 
[Ci sp]
+10.2 -1.9 43 +9  1018.2  0.1  739  287           
06 05.04.12 280 (З) >10 км    9/8 600 м кучево-дожд., средняя, верхняя 
[Cb cap|Ac trans|Ci fib]
+11.9 +0 44 +12  1018.5  0.5  739  285           
09 05.04.12 250 (З) >10 км  в посл. час ливневой дождь  9/5 600 м кучево-дожд., средняя, верхняя 
[Cb cap|Ac trans|Ci fib]
+9 +5.3 78 +8  1019  0.2  739  287           
12 05.04.12 240 (ЮЗ) >10 км  {ливн. осадки}  8/3 600 м кучево-дожд., верхняя 
[Cb cap|Ci fib]
+9.1 +3.2 66 +9  1018.3  -0.7  739  288    +13.8  0.4     
15 05.04.12 230 (ЮЗ) 4000 м    8/3 2000 м средняя, верхняя 
[Ac trans|Ci fib]
+5.7 +2.8 82 +5  1018.3  -0.4  738  291           
18 05.04.12 230 (ЮЗ) 4000 м    8/5 600 м кучево-дожд., средняя 
[Cb cap|Ac trans]
+5.8 +1.8 75 +5  1016.7  -1.5  737  291           
21 05.04.12 220 (ЮЗ) 4000 м    8/6 600 м кучево-дожд., средняя 
[Cb cap|Ac trans]
+4.5 +0.6 76 +4  1013.7  -3.1  735  291           
00 06.04.12  ()       н/о 
            +9.2  лёд 
03 06.04.12 280 (З) >10 км  слаб. ливневой снег  8/8 600 м кучево-дожд. 
[Cb cap]
+1.8 -0.7 83 1020.2  4.5  739  296           
06 06.04.12 260 (З) 3{12}  >10 км  слаб. ливневой снег  8/8 600 м кучево-дожд. 
[Cb cap]
+3.3 -2.1 68 +2  1024.4  4.3  743  296           
12 06.04.12 250 (З) 3{12}  >10 км  слаб. ливневой снег  8/8 600 м кучево-дожд. 
[Cb cap]
+0.4 -1.9 84 -1  1027.2  1.1  744  300    +4.1     
15 06.04.12 240 (ЮЗ) 4000 м  {ливн. осадки}  6/6 600 м кучево-дожд. 
[Cb cap]
+0.3 -3.7 75 -1  1028.4  1.1  745  300           
18 06.04.12 230 (ЮЗ) 4000 м  {ливн. осадки}  10/4 600 м кучево-дожд., верхняя 
[Cb cap|Cs]
+0.1 -4.1 73 -2  1027.6  -0.7  745  300           
21 06.04.12 230 (ЮЗ) 4000 м    10/8 600 м кучево-дожд., верхняя 
[Cb cap|Cs]
+0 -4.2 73 -2  1025.7  -1.9  743  300           
00 07.04.12 210 (ЮЗ) >10 км    10/3 2000 м средняя, верхняя 
[Ac lent|Cs]
+0.2 -5.3 66 -1  1022.9  -2.6  741  299  -0.6    0.0  равномерный
мокрый или
старый снег
100% 
03 07.04.12 210 (ЮЗ) >10 км    10/8 600 м кучево-дожд., средняя 
[Cb cap|Ac trans]
+1.9 -6.6 53 +1  1019.1  -3.6  739  296           
06 07.04.12 230 (ЮЗ) 7{16}  >10 км  слаб. ливневой снег  10/10 600 м кучево-дожд. 
[Cb cap]
+4.5 -2.9 59 +2  1014.9  -3.6  736  292           
12 07.04.12 240 (ЮЗ) 4{13}  >10 км  {ливн. осадки}  10/3 600 м кучево-дожд., верхняя 
[Cb cap|Cs]
+8.4 -6 36 +7  1009.4  -2.1  732  287    +8.6  0.0     
15 07.04.12 240 (ЮЗ) 4000 м    9/3 600 м кучево-дожд., средняя 
[Cb cap|Ac trans]
+7.5 -6.7 36 +6  1007.2  2.3  731  287           
18 07.04.12 240 (ЮЗ) 4000 м    9/6 600 м кучево-дожд., средняя 
[Cb cap|Ac trans]
+7.9 -5 40 +7  1005.1  -2  729  286           
21 07.04.12 250 (З) 4000 м  слаб. ливневой снег  9/8 600 м кучево-дожд., средняя 
[Cb cap|Ac trans]
+6.6 -0.4 61 +5  1004.7  -0.5  729  287           
00 08.04.12 280 (З) >10 км  слаб. ливневой дождь  10/10 600 м кучево-дожд. 
[Cb cap]
+4.1 +2.3 88 +4  1006.6  1.6  730  289  +4.1    0.0  мокрый или
старый снег
10-40% 
03 08.04.12 320 (СЗ) >10 км  слаб. ливневой снег  10/10 600 м кучево-дожд. 
[Cb cap]
+1.4 +0 90 +1  1010.9  3.8  733  294           
06 08.04.12 350 (С) >10 км  слаб. ливневой снег  10/10 600 м кучево-дожд. 
[Cb cap]
+0.5 -0.9 90 1015.4  4.3  736  296           
09 08.04.12 310 (СЗ) >10 км  в посл. час ливневой снег  10/6 600 м кучево-дожд., средняя, верхняя 
[Cb cap|Ac trans|Cs]
+0 -0.6 96 +1  1019.9  4.3  739  298           
12 08.04.12 320 (СЗ) >10 км  {ливн. осадки}  8/4 600 м кучево-дожд., средняя 
[Cb cap|Ac cuf]
+0.8 -5.7 62 1023.5  3.4  742  299    +4.4     
15 08.04.12 280 (З) 4000 м    3/3 2000 м средняя 
[Ac trans]
-1.5 -6.3 70 -1  1027.6  3.7  744  302           
18 08.04.12 260 (З) 4000 м    ясно 
-1.7 -7 67 -1  1030.1  2.5  746  303           
21 08.04.12 230 (ЮЗ) 4000 м    ясно 
-3.7 -8.5 69 -3  1032.6  748  306           
00 09.04.12 220 (ЮЗ) >10 км    ясно 
-5.2 -10.1 68 -7  1034.4  1.6  749  309  -6.4         
03 09.04.12 230 (ЮЗ) >10 км    5/0 верхняя 
[Ci fib]
+2.1 -8.1 47 +3  1034.6  1.1  750  301           
06 09.04.12 280 (З) >10 км    10/0 верхняя 
[Cs]
+5.4 -10.4 31 +5  1033.1  -0.9  749  297           
09 09.04.12 270 (З) >10 км    3/0 верхняя 
[Ci fib]
+6.7 -11.5 26 +6  1031.2  -1.8  748  295           
12 09.04.12 250 (З) >10 км    10/0 верхняя 
[Cs]
+4.5 -12.8 27 +4  1029.5  -1.9  746  297    +7.5       
15 09.04.12 240 (ЮЗ) 4000 м    10/3 2000 м средняя, верхняя 
[Ac trans|Cs]
+3.8 -13.1 28 +3  1028.1  -1.5  745  297           
18 09.04.12 260 (З) 3{12}  4000 м    10/5 2000 м средняя, верхняя 
[Ac trans|Cs]
+4.2 -9.3 37 +3  1028.1  0.1  745  297           
00 10.04.12 240 (ЮЗ) 6{12}  >10 км  слаб. ливневой дождь со снегом  10/8 600 м кучево-дожд., средняя 
[Cb cap|Ac As]
+1.4 -0.3 88 -2  1026.7  -0.3  744  298  +0.6    равномерный
мокрый или
старый снег
100% 
06 10.04.12 240 (ЮЗ) 7{16}  >10 км  {ливн. осадки}  9/3 2000 м средняя, верхняя 
[Ac lent|Cs]
+8.4 +0.4 57 +6  1024.7  -1.2  743  290           
09 10.04.12 230 (ЮЗ) 7{16}  >10 км    10/3 600 м кучево-дожд., средняя 
[Cb cap|Ac As]
+10.1 +0 49 +8  1024.1  -0.3  743  289           
12 10.04.12 230 (ЮЗ) 5{16}  >10 км    10/3 600 м кучево-дожд., средняя 
[Cb cap|Ac As]
+10.6 -0.9 45 +9  1022.8  -1.2  742  288    +11.8  0.0     
15 10.04.12 240 (ЮЗ) 4000 м    9/6 2000 м средняя, верхняя 
[Ac trans|Ci fib]
+9.3 -1.7 46 +8  1023.5  0.6  743  290           
18 10.04.12 240 (ЮЗ) 4000 м    8/6 600 м кучево-дожд., средняя 
[Cb cap|Ac trans]
+9.2 -4.1 39 +8  1023.1  -0.4  742  290           
21 10.04.12 230 (ЮЗ) 4000 м    9/3 600 м кучево-дожд., средняя, верхняя 
[Cb cap|Ac trans|Ci fib]
+7.5 -4.4 43 +6  1022.5  -0.9  742  291           
00 11.04.12 230 (ЮЗ) 6{12}  >10 км    9/3 2000 м средняя, верхняя 
[Ac lent|Ci fib]
+6.1 -4.3 47 +4  1022  -0.6  741  293  +6         
03 11.04.12 240 (ЮЗ) >10 км    9/6 2000 м средняя, верхняя 
[Ac trans|Ci fib]
+9.8 -5 35 +9  1020.6  -0.9  740  289           
06 11.04.12 230 (ЮЗ) >10 км    9/9 2000 м средняя 
[Ac trans]
+13.7 -5 27 +14  1018  -2.2  739  284           
09 11.04.12 250 (З) >10 км    9/8 2000 м средняя, верхняя 
[Ac trans|Ci fib]
+15.5 -3.8 26 +15  1014.4  -3.2  736  281           
12 11.04.12 260 (З) 3{12}  >10 км    9/3 2000 м средняя, верхняя 
[Ac trans|Ci fib]
+16.1 -2.5 28 +16  1011.1  -3.1  734  280    +17.1       
15 11.04.12 250 (З) 4000 м    9/0 верхняя 
[Ci fib]
+14.6 -3.6 28 +14  1010.5  -0.8  734  281           
18 11.04.12 300 (СЗ) 4{13}  4000 м    10/0 верхняя 
[Cs]
+14.7 -2.2 31 +15  1009.7  -0.8  733  280           
21 11.04.12 320 (СЗ) 2{12}  4000 м    9/5 600 м кучево-дожд., средняя 
[Cb cap|Ac trans]
+5 -6.5 43 +5  1015.8  4.8  737  292           
00 12.04.12 310 (СЗ) >10 км    10/3 1000 м верхняя 
[Sc|Cs]
+0.8 -9.2 47 1020.8  4.4  740  298  +0.6         
03 12.04.12 300 (СЗ) >10 км    9/6 2000 м средняя, верхняя 
[Ac trans|Ci fib]
+2.6 -12.5 32 +1  1022  1.3  741  297           
06 12.04.12 300 (СЗ) >10 км    10/0 верхняя 
[Cs]
+5.4 -12.7 26 +4  1020.2  -1.3  740  293           
09 12.04.12 310 (СЗ) >10 км    9/0 верхняя 
[Ci fib]
+6.5 -14.1 21 +6  1018.6  -1.5  739  292           
12 12.04.12 280 (З) >10 км    8/0 верхняя 
[Ci fib]
+4.9 -13.9 24 +4  1017.1  -1.6  737  293    +7.1       
15 12.04.12 260 (З) 4000 м    ясно 
+2.3 -14.6 27 +2  1017.7  0.3  738  296           
18 12.04.12 270 (З) 4000 м    ясно 
+0.8 -13.7 33 1017.8  -0.1  738  297           
21 12.04.12 260 (З) 4000 м    ясно 
-0.3 -11 44 -1  1017.8  -0.2  737  298           
00 13.04.12 270 (З) >10 км    9/3 2000 м средняя, верхняя 
[Ac trans|Ci fib]
+0.3 -12.6 37 1017.9  0.3  738  298  -0.9         
03 13.04.12 270 (З) >10 км    10/0 верхняя 
[Cs]
+3.8 -9 39 +3  1017.3  -0.3  737  294           
06 13.04.12 280 (З) >10 км    10/0 верхняя 
[Cs]
+6.5 -9.6 31 +6  1016.1  -0.8  737  291           
09 13.04.12 310 (СЗ) >10 км    9/5 2000 м средняя, верхняя 
[Ac cast|Ci fib]
+6.7 -8.7 32 +7  1014.8  -1.2  736  290           
12 13.04.12 310 (СЗ) >10 км    8/4 2000 м средняя, верхняя 
[Ac trans|Ci fib]
+6.4 -8.7 33 +7  1014.5  -0.3  736  290    +8.2       
15 13.04.12 250 (З) 4000 м    3/0 верхняя 
[Ci fib]
+2.7 -9 42 +2  1016.5  1.4  737  295           
18 13.04.12 240 (ЮЗ) 4000 м    ясно 
+0.5 -8.2 52 1018  1.3  738  298           
21 13.04.12 240 (ЮЗ) 4000 м    ясно 
+0.6 -10 45 1019  0.9  738  298           
00 14.04.12 250 (З) >10 км    ясно 
+1.3 -8.9 46 +2  1019.9  739  297  -1.4         
03 14.04.12 220 (ЮЗ) >10 км    ясно 
+7.3 -9 30 +7  1020  0.8  740  291           
06 14.04.12 300 (СЗ) >10 км    9/4 2000 м средняя, верхняя 
[Ac trans|Ci fib]
+11.5 -9 23 +12  1019.6  0.1  740  287           
09 14.04.12 300 (СЗ) >10 км    9/6 600 м кучево-дожд., средняя 
[Cb cap|Ac trans]
+11.1 -9.4 23 +11  1019.3  -0.4  740  287           
12 14.04.12 270 (З) >10 км    9/3 2000 м средняя, верхняя 
[Ac lent|Ci fib]
+10.8 -7.4 27 +12  1018.2  -1.1  739  287    +13.2       
15 14.04.12 240 (ЮЗ) 4000 м    ясно 
+5.1 -6.3 44 +5  1018.4  -0.4  738  293           
18 14.04.12 230 (ЮЗ) 4000 м    8/0 верхняя 
[Ci fib]
+6.6 -6 40 +5  1017.1  -1.1  738  291           
21 14.04.12 230 (ЮЗ) 4000 м    10/0 верхняя 
[Cs]
+6.9 -5.5 41 +6  1015.7  -1.4  737  290           
00 15.04.12 230 (ЮЗ) >10 км    10/4 600 м кучево-дожд., средняя, верхняя 
[Cb cap|Ac trans|Cs]
+6.8 -6.1 39 +5  1014.9  -0.1  736  290  +4.5         
03 15.04.12 230 (ЮЗ) >10 км    10/5 600 м кучево-дожд., средняя, верхняя 
[Cb cap|Ac trans|Cs]
+8.7 -5.4 36 +8  1013.3  -1.4  735  288           
06 15.04.12 250 (З) >10 км    9/4 600 м кучево-дожд., средняя, верхняя 
[Cb cap|Ac trans|Ci fib]
+12.8 -5.7 27 +12  1010.5  -2.2  733  283           
09 15.04.12 260 (З) >10 км    10/3 600 м кучево-дожд., средняя 
[Cb cap|Ac As]
+15.2 +0.2 36 +16  1007.2  -2.8  731  279           
12 15.04.12 230 (ЮЗ) 6{12}  >10 км  в посл. час ливневой дождь  10/6 600 м кучево-дожд., средняя 
[Cb cap|Ac As]
+12.5 +3.8 55 +11  1004.5  -3  729  280    +15.4  0.0     
18 15.04.12 240 (ЮЗ) 4000 м  {ливн. осадки}  10/10 600 м кучево-дожд. 
[Cb cap]
+13.2 +3.6 52 +13  1000.5  -2.1  726  278           
21 15.04.12 270 (З) 4000 м    9/8 600 м кучево-дожд., средняя 
[Cb cap|Ac trans]
+12.2 +4.3 58 +12  1000  -0.6  726  279           
00 16.04.12 290 (З) >10 км  слаб. ливневой дождь  10/10 600 м кучево-дожд. 
[Cb cap]
+8.5 +5.1 79 +8  1002.8  2.4  728  283  +8.1    0.8     
03 16.04.12 280 (З) >10 км  в посл. час ливневой дождь  10/10 600 м кучево-дожд. 
[Cb cap]
+7.8 +3.8 76 +8  1005.9  2.9  730  285           
06 16.04.12 270 (З) >10 км  слаб. ливневой дождь  10/10 600 м кучево-дожд. 
[Cb cap]
+9 +5.5 79 +8  1006.3  0.5  730  284           
09 16.04.12 260 (З) >10 км  слаб. ливневой дождь  10/10 600 м кучево-дожд. 
[Cb cap]
+9.5 +3.8 68 +9  1005.5  -0.8  729  283           
12 16.04.12 250 (З) >10 км  {ливн. осадки}  10/10 600 м кучево-дожд. 
[Cb cap]
+8.6 +3.2 69 +9  1004.5  -0.9  729  284    +10.8  0.5     
15 16.04.12 300 (СЗ) 4000 м  слаб. ливневой дождь  10/10 600 м кучево-дожд. 
[Cb cap]
+7.4 +3.6 77 +7  1004.8  729  285           
18 16.04.12 270 (З) 4000 м  {ливн. осадки}  10/10 600 м кучево-дожд. 
[Cb cap]
+4.6 -1.1 67 +4  1005.1  729  289           
21 16.04.12 280 (З) 4000 м    9/3 600 м кучево-дожд., средняя, верхняя 
[Cb cap|Ac lent|Ci fib]
+3.6 +0.1 78 +3  1005  -0.2  729  290           
00 17.04.12 290 (З) >10 км    10/4 600 м кучево-дожд., средняя, верхняя 
[Cb cap|Ac trans|Cs]
+2.6 -0.1 82 +2  1006.5  1.2  730  291  +2.4    0.5     
03 17.04.12 300 (СЗ) >10 км    8/3 2000 м кучево-дожд., средняя 
[Cb cap|Ac trans]
+6.3 -5.2 44 +5  1006.8  0.8  730  288           
06 17.04.12 320 (СЗ) >10 км    8/5 600 м кучево-дожд., средняя 
[Cb cap|Ac trans]
+1.1 -8.6 48 1005.8  0.1  730  294           
09 17.04.12 290 (З) >10 км    10/10 600 м кучево-дожд. 
[Cb cap]
+7.4 -5 41 +7  1007.2  0.4  731  287           
12 17.04.12 290 (З) >10 км  слаб. ливневой дождь  10/10 600 м кучево-дожд. 
[Cb cap]
+3.3 +0.9 84 +4  1009.3  1.5  732  291    +9.4  0.0     
15 17.04.12 290 (З) 4000 м  {ливн. осадки}  4/4 600 м кучево-дожд. 
[Cb cap]
+1.9 -1.2 80 +1  1010.8  1.4  733  293           
18 17.04.12 280 (З) 4000 м  {ливн. осадки}  8/8 600 м кучево-дожд. 
[Cb cap]
+0.8 -5.3 64 1012.2  1.2  734  295           
21 17.04.12 290 (З) 4000 м    9/8 600 м кучево-дожд., средняя 
[Cb cap|Ac trans]
-0.9 -8 59 1014.2  1.6  735  298           
00 18.04.12 290 (З) >10 км    9/4 600 м кучево-дожд., средняя 
[Cb cap|Ac trans]
-1.5 -10.3 51 -2  1016.3  736  299  -1.8    0.0     
03 18.04.12 310 (СЗ) >10 км  слаб. ливневой снег  9/8 600 м кучево-дожд., верхняя 
[Cb cap|Ci fib]
+0.5 -11.3 41 1017  737  297           
06 18.04.12 310 (СЗ) >10 км  {ливн. осадки}  9/5 600 м кучево-дожд., верхняя 
[Cb cap|Ci fib]
+1.7 -12.5 34 +1  1017.1  0.2  737  296           
09 18.04.12 290 (З) >10 км    9/8 600 м кучево-дожд., верхняя 
[Cb cap|Ci fib]
+3.8 -13.3 27 +3  1017.7  0.8  738  294           
12 18.04.12 330 (СЗ) >10 км    5/5 600 м кучево-дожд. 
[Cb cap]
+1.5 -15 28 +1  1019.5  1.5  739  297    +4.3  0.0     
15 18.04.12 240 (ЮЗ) 4000 м    ясно 
-3.1 -11.7 51 -3  1021.6  1.4  740  303           
18 18.04.12 230 (ЮЗ) 4000 м    ясно 
-3.1 -11.9 51 -3  1021.9  0.1  740  303           
21 18.04.12 260 (З) 4000 м    ясно 
-6.5 -12 65 -6  1021.9  -0.2  740  306           
00 19.04.12 тихо ()   >10 км    ясно 
-5.2 -9.7 71 -5  1021.6  -0.1  740  305  -7.4         
03 19.04.12 050 (СВ) >10 км    1/1 600 м 
[Cu med, cong]
+1.4 -13.1 33 +2  1020.2  -0.5  739  298           
06 19.04.12 100 (В) >10 км    3/1 600 м верхняя 
[Cu med, cong|Ci fib]
+4.2 -11.6 31 +4  1017.9  -1.8  738  294           
09 19.04.12 050 (СВ) >10 км    3/0 верхняя 
[Ci fib]
+6.4 -11 28 +7  1016.4  -1.3  737  291           
12 19.04.12 100 (В) >10 км    3/0 верхняя 
[Ci fib]
+4.4 -10 34 +4  1016.8  0.2  737  293    +6.6       
15 19.04.12 250 (З) 4000 м    ясно 
-1.5 -10.3 51 -2  1017.7  0.1  737  300           
18 19.04.12 250 (З) 4000 м    ясно 
-3.3 -10.2 59 -3  1017.1  -0.9  737  301           
21 19.04.12 260 (З) 4000 м    8/0 верхняя 
[Ci fib]
-4.6 -11.2 60 -4  1016.5  -0.7  736  303           
00 20.04.12 тихо ()   >10 км    9/3 2000 м средняя, верхняя 
[Ac lent|Ci fib]
-4.5 -10.1 65 -5  1014.9  -1.5  735  302  -5.2         
03 20.04.12 090 (В) >10 км  дым  9/5 2000 м средняя, верхняя 
[Ac trans|Ci fib]
+2.5 -8.3 45 +3  1011.6  -2.3  733  294           
06 20.04.12 180 (Ю) >10 км    10/10 2000 м 
[Ac As]
+7.7 -7.8 32 +8  1007.7  -3.2  731  287           
09 20.04.12 210 (ЮЗ) >10 км  слаб. ливневой дождь  10/10 600 м кучево-дожд. 
[Cb cap]
+7.6 -3.6 45 +7  1004.1  -3.5  728  286           
12 20.04.12 130 (ЮВ) >10 км  слаб. ливневой дождь  10/10 600 м кучево-дожд. 
[Cb cap]
+3.3 +1.8 90 +4  1002  -2.4  726  289    +8.9     
15 20.04.12 110 (В) 4000 м  слаб. дождь{ливн. осадки}  10/8 300 м средняя 
[Frnb|As op]
+2.7 +2.2 96 +3  1000.4  -1.8  725  289           
18 20.04.12 тихо ()   4000 м  в посл. час дождь{ливн. осадки}  10/8 300 м средняя 
[Frnb|As op]
+2.4 +1.9 96 +2  997.7  -2.6  723  288           
21 20.04.12 260 (З) 4000 м    10/8 200 м средняя 
[Frnb|As op]
+3.2 +1.9 91 +3  995.7  -1.7  722  287           
00 21.04.12 300 (СЗ) >10 км    10/10 300 м кучево-дожд. 
[Cb cap]
+3.2 +2.7 96 +4  996.2  0.5  722  287  +2       
03 21.04.12 310 (СЗ) >10 км  слаб. ливневой дождь  10/10 300 м кучево-дожд. 
[Cb cap]
+3.1 +0.7 84 +3  997.3  723  288           
06 21.04.12 310 (СЗ) >10 км  в посл. час ливневой дождь  8/8 600 м кучево-дожд. 
[Cb cap]
+6.1 -1.8 57 +6  997.9  0.9  724  285           
09 21.04.12 280 (З) >10 км    10/10 600 м кучево-дожд. 
[Cb cap]
+7.5 -4.4 43 +7  998.4  0.6  724  284           
12 21.04.12 310 (СЗ) >10 км  {ливн. осадки}  10/10 600 м кучево-дожд. 
[Cb cap]
+6.3 -5.6 42 +6  1000.3  1.7  725  286    +8.7  0.9     
15 21.04.12 300 (СЗ) >10 км    10/10 600 м кучево-дожд. 
[Cb cap]
+2.6 -3.3 65 +3  1002.9  2.1  727  290           
18 21.04.12 тихо ()   4000 м  слаб. ливневой снег  10/10 600 м кучево-дожд. 
[Cb cap]
+1.7 -2.1 76 +2  1004.3  1.2  728  292           
21 21.04.12 310 (СЗ) 4000 м  в посл. час ливневой снег  10/10 600 м кучево-дожд. 
[Cb cap]
+0.6 -5.2 65 1006.2  1.8  729  294           
00 22.04.12 290 (З) >10 км  {ливн. осадки}  9/8 600 м кучево-дожд., средняя 
[Cb cap|Ac trans]
-0.5 -5 71 -1  1009  2.5  731  296  -0.8    0.0     
03 22.04.12 300 (СЗ) >10 км    9/8 600 м кучево-дожд., средняя 
[Cb cap|Ac cuf]
+2 -6.4 54 +1  1009.8  732  293           
06 22.04.12 290 (З) >10 км  слаб. ливневой снег  10/10 600 м кучево-дожд. 
[Cb cap]
+0.8 -4.6 67 1012  2.1  733  295           
09 22.04.12 260 (З) 4000 м  ливневой снег  10/10 600 м кучево-дожд. 
[Cb cap]
+0.3 -0.8 92 1013.8  1.7  735  296           
12 22.04.12 340 (С) >10 км  {ливн. осадки}  8/4 600 м кучево-дожд., средняя 
[Cb cap|Ac cuf]
+3 -11.1 35 +2  1015.8  2.1  736  294    +3.6  0.4     
15 22.04.12 290 (З) 4000 м    3/3 600 м кучево-дожд. 
[Cb cap]
-0.6 -8.9 53 -1  1019.2  2.9  738  299           
18 22.04.12 280 (З) 4000 м    4/3 600 м кучево-дожд., средняя 
[Cb cap|Ac trans]
-2.4 -6.2 75 -2  1021  1.6  740  301           
21 22.04.12 280 (З) 4000 м  слаб. ливневой снег  10/10 600 м кучево-дожд. 
[Cb cap]
-1.8 -4.8 80 -4  1021.4  0.5  740  301           
00 23.04.12 280 (З) >10 км  слаб. ливневой снег  10/10 600 м кучево-дожд. 
[Cb cap]
-1 -5.6 71 -3  1023.4  1.9  741  300  -2.4    0.0     
03 23.04.12 300 (СЗ) >10 км    10/5 600 м кучево-дожд., средняя 
[Cb cap|Ac trans]
+3.1 -7.4 46 +2  1023.9  1.1  742  296           
06 23.04.12 300 (СЗ) >10 км    8/8 600 м кучево-дожд. 
[Cb cap]
+4.1 -10.1 35 +3  1023.5  -0.4  742  295           
09 23.04.12 260 (З) >10 км    8/8 600 м кучево-дожд. 
[Cb cap]
+4.9 -10.1 33 +3  1023.1  -0.2  742  295           
12 23.04.12 300 (СЗ) >10 км    8/5 600 м кучево-дожд., средняя 
[Cb cap|Ac trans]
+4.5 -10.4 33 +4  1023  -0.1  742  295    +6.6  0.0     
15 23.04.12 260 (З) 4000 м    10/4 2000 м средняя, верхняя 
[Ac lent|Cs]
+2.6 -10.2 38 +2  1024.2  0.9  742  297           
18 23.04.12 240 (ЮЗ) 4000 м    9/5 2000 м средняя, верхняя 
[Ac trans|Ci fib]
+1.1 -10.2 43 1024.4  -0.1  742  299           
21 23.04.12 230 (ЮЗ) 4000 м    10/10 2000 м 
[Ac As]
+1.6 -8.9 46 +1  1023.2  -1  742  298           
00 24.04.12 230 (ЮЗ) >10 км  слаб. ливневой снег  10/8 600 м кучево-дожд., средняя 
[Cb cap|Ac As]
+1.7 -5.2 60 1022  -1.2  741  297  +0.7    690     
03 24.04.12 220 (ЮЗ) >10 км  слаб. ливневой снег  10/10 600 м кучево-дожд. 
[Cb cap]
+2.5 -1.8 73 1020.4  -1.4  740  296           
06 24.04.12 230 (ЮЗ) >10 км  слаб. ливневой дождь со снегом  10/10 600 м кучево-дожд. 
[Cb cap]
+2 +0.7 91 1017.2  -3.1  737  295           
12 24.04.12 230 (ЮЗ) 6{16}  >10 км  {ливн. осадки}  10/6 600 м кучево-дожд., средняя 
[Cb cap|Ac As]
+4.2 +0.8 79 +2  1010.9  -2.2  733  291    +4.5     
15 24.04.12 260 (З) 4000 м  {ливн. осадки}  10/3 600 м кучево-дожд., средняя 
[Cb cap|Ac As]
+5.1 -0.2 69 +4  1009.7  -1.1  732  290           
00 25.04.12 240 (ЮЗ) 5{14}  >10 км  слаб. ливневой дождь  10/10 600 м кучево-дожд. 
[Cb cap]
+4.6 +3.1 90 +2  1000.1  -0.8  725  287  +3       
03 25.04.12 320 (СЗ) >10 км  слаб. ливневой дождь  10/10 600 м кучево-дожд. 
[Cb cap]
+2 +1.5 97 +1  1002.9  2.5  727  290           
06 25.04.12 300 (СЗ) >10 км  слаб. ливневой дождь со снегом  10/10 600 м кучево-дожд. 
[Cb cap]
+3.8 +0.1 77 +3  1004.5  1.7  728  289           
12 25.04.12 300 (СЗ) 3{13}  >10 км  {ливн. осадки}  8/8 600 м кучево-дожд. 
[Cb cap]
+2.3 -13.9 29 +1  1011.6  2.8  733  294    +5.1     
15 25.04.12 310 (СЗ) 4000 м    ясно 
-1 -15.5 32 -2  1014.4  2.2  735  298           
18 25.04.12 300 (СЗ) 4000 м    4/3 600 м кучево-дожд., средняя 
[Cb cap|Ac trans]
-2.8 -16.1 35 -4  1016.7  1.9  736  301           
21 25.04.12 300 (СЗ) 4000 м    8/8 600 м кучево-дожд. 
[Cb cap]
-4.4 -16 40 -7  1017.5  0.7  737  303           
00 26.04.12 290 (З) >10 км    8/8 600 м кучево-дожд. 
[Cb cap]
-4.9 -15.7 42 -7  1018.8  1.2  738  304  -4.9         
03 26.04.12 290 (З) >10 км    6/6 600 м кучево-дожд. 
[Cb cap]
-2.4 -15.2 37 -4  1019  0.6  738  301           
06 26.04.12 310 (СЗ) >10 км    6/6 600 м кучево-дожд. 
[Cb cap]
+0.5 -15.3 29 -2  1018.4  -0.2  738  298           
09 26.04.12 310 (СЗ) >10 км    6/6 600 м кучево-дожд. 
[Cb cap]
+2.7 -16 24 +1  1018.4  0.2  738  296           
12 26.04.12 330 (СЗ) >10 км    3/3 600 м кучево-дожд. 
[Cb cap]
+0.6 -21.2 18 1019  0.3  738  298    +3.1       
15 26.04.12 270 (З) 4000 м    ясно 
-3 -18.1 30 -3  1019.7  0.1  739  302           
18 26.04.12 260 (З) 4000 м    ясно 
-4.6 -17.9 35 -4  1019.3  -0.4  738  304           
21 26.04.12 260 (З) 4000 м    ясно 
-6 -15.1 49 -6  1018.5  -1  737  305           
00 27.04.12 290 (З) 4000 м    ясно 
-4.4 -14.7 44 -6  1018.7  0.4  738  303  -6.6         
03 27.04.12 320 (СЗ) >10 км    ясно 
-0.9 -14.6 35 -2  1018.1  -0.2  738  299           
06 27.04.12 330 (СЗ) >10 км    5/5 600 м кучево-дожд. 
[Cb cap]
+1.7 -13.2 32 +1  1016.7  -1  737  296           
09 27.04.12 310 (СЗ) >10 км    8/8 600 м кучево-дожд. 
[Cb cap]
+4.5 -12.8 27 +4  1015.3  -1  736  293           
12 27.04.12 040 (СВ) >10 км    9/9 600 м кучево-дожд. 
[Cb cap]
+3.1 -12.7 30 +3  1015.2  -0.3  736  294    +5.2       
15 27.04.12 260 (З) 4000 м    3/3 600 м кучево-дожд. 
[Cb cap]
-2.5 -13.1 44 -2  1015.7    736  300           
18 27.04.12 260 (З) 4000 м    ясно 
-5 -10.8 64 -5  1015  -1.1  735  303           
21 27.04.12 250 (З) 4000 м    ясно 
-6.5 -11.1 70 -6  1013.7  -1.4  734  304           
00 28.04.12 050 (СВ) >10 км    9/3 2000 м средняя, верхняя 
[Ac trans|Ci fib]
-4 -9.4 66 -4  1013  -0.4  734  301  -7         
03 28.04.12 070 (В) >10 км    8/0 2000 м 
+0.1 -8.8 51 -1  1011.9  -0.6  733  296           
06 28.04.12 340 (С) >10 км    9/6 600 м кучево-дожд., верхняя 
[Cb cap|Ci fib]
+3.2 -11.9 32 +4  1010.7  -0.7  733  293           
09 28.04.12 040 (СВ) >10 км    9/8 600 м кучево-дожд., верхняя 
[Cb cap|Ci fib]
-4.1 -12.4 52 -4  1010.8  0.1  733  301           
12 28.04.12 340 (С) >10 км    5/5 600 м кучево-дожд. 
[Cb cap]
+3.2 -12.5 30 +4  1011.7  0.8  733  293    +5.3       
15 28.04.12 230 (ЮЗ) 4000 м    8/8 600 м кучево-дожд. 
[Cb cap]
-1.7 -11 49 -1  1013.7  1.3  734  299           
18 28.04.12 270 (З) 4000 м    10/10 600 м кучево-дожд. 
[Cb cap]
-2.2 -10.3 54 -2  1013.9  0.1  734  299           
21 28.04.12 230 (ЮЗ) 4000 м    10/8 600 м кучево-дожд., средняя 
[Cb cap|Ac trans]
-4.5 -8.9 71 -4  1014.7  0.5  735  302           
00 29.04.12 тихо ()   >10 км    3/0 верхняя 
[Ci fib]
-1.6 -7.2 66 -2  1015.5  1.2  736  299  -4.9         
03 29.04.12 290 (З) >10 км    10/10 600 м кучево-дожд. 
[Cb cap]
+2 -9.7 42 +1  1015.9  0.8  736  295           
06 29.04.12 280 (З) >10 км    9/6 600 м кучево-дожд., верхняя 
[Cb cap|Ci fib]
+4.2 -10.4 34 +4  1015.1  -0.4  736  293           
09 29.04.12 290 (З) >10 км    10/10 600 м кучево-дожд. 
[Cb cap]
+5.3 -11 30 +6  1014.1  -0.9  735  292           
12 29.04.12 110 (В) >10 км    10/5 1000 м верхняя 
[Cu hum|Cs]
+5.8 -11.1 28 +7  1014  -0.1  735  291    +7       
15 29.04.12 190 (Ю) 4000 м    8/0 верхняя 
[Ci fib]
+1.4 -10.7 40 +2    -0.5  735  296           
18 29.04.12 тихо ()   4000 м    3/0 верхняя 
[Ci fib]
-1.7 -10.5 51 -2  1013.1  -1.3  734  299           
21 29.04.12 тихо ()   4000 м    9/8 2000 м средняя, верхняя 
[Ac trans|Ci fib]
-1.7 -10 53 -2  1011.9  -1.1  733  298           
00 30.04.12 тихо ()   >10 км    9/3 2000 м средняя, верхняя 
[Ac trans|Ci fib]
-0.6 -8.5 55 -1  1009.5  -2.2  731  296  -2.5         
03 30.04.12 080 (В) >10 км    9/0 верхняя 
[Ci fib]
+7.5 -10.7 26 +7  1005.4  -3  729  287           
06 30.04.12 100 (В) >10 км    9/3 600 м кучево-дожд., средняя 
[Cb cap|Ac trans]
+13.4 -9.8 19 +13  1001.7  -2.9  727  280           
09 30.04.12 220 (ЮЗ) >10 км    10/10 600 м кучево-дожд. 
[Cb cap]
+16 +5.7 50 +17  999.8  -1.6  726  275           
12 30.04.12 280 (З) 5{14}  >10 км  слаб. ливневой дождь  10/10 600 м кучево-дожд. 
[Cb cap]
+10.4 +1.1 52 +9  1003.7  3.2  728  282    +16.8  0.0     
15 30.04.12 240 (ЮЗ) 4000 м    4/3 2000 м средняя, верхняя 
[Ac trans|Ci fib]
+6.6 -0.4 61 +6  1007  2.7  730  287           
18 30.04.12 230 (ЮЗ) 4000 м    6/0 верхняя 
[Ci sp]
+6.4 -1 59 +5  1006.2  -0.8  730  287           
21 30.04.12 190 (Ю) 4000 м    9/9 2000 м средняя 
[Ac trans]
+5.9 -1.4 59 +6  1000.9  -5.1  726  286           
00 01.05.12 190 (Ю) >10 км  слаб. ливневой дождь  10/10 600 м кучево-дожд. 
[Cb cap]
+5.4 +3.2 86 +4  996  -4.8  722  285  +5.2       
06 01.05.12 260 (З) 3{12}  >10 км  слаб. ливневой дождь  10/10 600 м кучево-дожд. 
[Cb cap]
+9.3 +6.5 83 +9  995.4  2.9  722  280           
12 01.05.12 280 (З) 5{16}  >10 км  {ливн. осадки}  5/3 600 м кучево-дожд., средняя, верхняя 
[Cb cap|Ac trans|Ci fib]
+10.3 -0.5 47 +9  1003.4  3.5  728  283    +12.4     
15 01.05.12 290 (З) 2{15}  4000 м    9/3 600 м кучево-дожд., средняя 
[Cb cap|Ac trans]
+5.8 -0.2 65 +6  1007.6  3.5  731  288           
18 01.05.12 260 (З) 4000 м    9/8 600 м кучево-дожд., средняя 
[Cb cap|Ac trans]
+1.9 -2.5 73 +1  1010.5  2.3  732  293           
21 01.05.12 250 (З) 4000 м    9/3 600 м кучево-дожд., средняя 
[Cb cap|Ac trans]
+1.6 -4.2 65 +1  1011.6  1.1  733  294           
00 02.05.12 260 (З) >10 км    9/8 600 м кучево-дожд., верхняя 
[Cb cap|Ci fib]
+1.8 -3.6 67 +1  1013.7  735  294  +0.7         
03 02.05.12 260 (З) >10 км    5/5 600 м кучево-дожд. 
[Cb cap]
+4.8 -3.6 54 +6  1014.3  735  292           
06 02.05.12 250 (З) >10 км    ясно 
+10.2 -1.2 45 +10  1012.3  -1.3  734  285           
09 02.05.12 040 (СВ) >10 км    9/6 2000 м средняя, верхняя 
[Ac trans|Ci fib]
+13.6 -3 31 +14  1011.3  -0.7  734  282           
12 02.05.12 020 (С) >10 км    9/9 2000 м средняя 
[Ac trans]
+11.9 -1.7 39 +13  1012.1  0.6  734  284    +14.5       
15 02.05.12 тихо ()   4000 м    10/3 600 м кучево-дожд., средняя 
[Cb cap|Ac trans]
+8.9 -1.9 47 +9  1012.8  0.3  735  287           
18 02.05.12 тихо ()   4000 м    10/5 600 м кучево-дожд., средняя 
[Cb cap|Ac trans]
+7.4 -1.7 52 +7  1012.4  -0.5             
21 02.05.12 230 (ЮЗ) 4000 м    8/8 600 м средняя 
[Ac trans]
+3.9 -2 65 +5  1011.2  -1.1  733  292           
00 03.05.12 080 (В) >10 км    8/4 2000 м средняя, верхняя 
[Ac lent|Ci fib]
+6.8 -1.8 54 +8  1011  -0.3  733  288  +3         
03 03.05.12 080 (В) >10 км    8/0 600 м средняя, верхняя 
[As op|Ci fib]
+12.7 -0.7 40 +13  1009  -1.1  732  282           
06 03.05.12 110 (В) >10 км    10/5 600 м кучево-дожд., средняя 
[Cb cap|Ac trans]
+20 +2.7 32 +20  1005.4  -2.7  730  274           
09 03.05.12 230 (ЮЗ) >10 км    10/5 600 м кучево-дожд., средняя 
[Cb cap|Ac trans]
+24.8 +4.8 27 +25  1003.4  -1.4  729  269           
12 03.05.12 210 (ЮЗ) >10 км    5/5 600 м кучево-дожд. 
[Cb cap]
+24.4 +3.3 25 +24  1003.3  0.1  729  269    +25.6       
Время (UTC), дата Ветер
(°,м/с) 
Видим.   Явления Облачность Т
(°С)
Тd
(°С)
f(%) Тe
(°С)
Pmin
(гПа)
dP
(гПа)
Po
(мм)
O2
(г/м3)
Тmin Tmax R s Состояние
почвы